Wind_Speed
19 19 19 18 18 18 19 19 19 18 17 15 15 14 13 13 12 11 11 10 9 9 10 10 9 9 9 9 9 8 8 7 7 7 8 8 8 9 8 7 7 9 10 9 7 8 9 11 12 10 9 10 10 10 10 11 12 12 13 14 14 13 12 11 11 11 11 11 12 12 11 10 9 9 9 11 10 9 10 10 10 10 10 8 8
19 18 18 18 19 19 18 18 18 19 18 17 16 15 14 13 13 12 11 10 10 10 10 10 10 10 9 9 9 9 8 8 9 10 9 9 9 8 7 5 6 8 8 7 9 12 13 12 10 9 9 10 10 11 11 12 12 12 13 15 14 13 11 11 11 11 12 10 10 12 11 9 9 10 10 11 10 10 10 10 10 10 9 9 9
18 18 18 18 18 18 18 18 18 19 19 18 17 16 15 14 13 13 13 12 11 11 11 10 10 9 9 9 8 8 9 10 11 11 10 9 8 8 7 6 8 9 6 5 9 13 14 12 10 9 9 10 10 10 10 11 12 13 14 15 16 16 14 11 9 10 12 11 10 11 10 9 9 10 10 10 10 9 10 10 10 10 9 10 10
15 17 18 18 18 17 17 18 18 18 19 18 17 16 15 14 13 13 13 12 12 11 11 10 10 9 9 9 9 8 9 11 12 11 11 9 7 7 8 9 9 8 7 9 11 11 12 12 10 9 9 10 10 10 10 11 13 15 16 15 16 18 16 12 8 8 10 12 11 11 11 10 10 9 10 10 10 9 9 9 10 10 9 10 11
15 17 18 18 17 17 17 17 17 17 18 17 16 16 15 14 14 13 13 13 13 12 11 11 10 10 10 10 10 9 9 10 10 11 11 9 7 7 9 9 9 9 10 12 12 10 12 13 11 10 10 10 10 10 11 12 14 16 17 16 15 15 13 10 8 7 9 12 12 13 13 13 12 10 11 12 12 11 10 9 10 10 9 11 11
17 17 18 17 16 17 17 16 16 16 16 16 16 15 15 15 14 14 13 13 13 13 12 11 11 11 10 10 9 8 8 8 8 9 9 7 6 8 9 8 8 8 9 11 11 11 12 11 10 10 10 11 12 12 12 12 12 14 15 15 15 14 11 9 7 6 9 12 12 12 13 13 13 12 12 12 12 12 11 10 10 9 10 11 11
18 18 18 17 16 16 16 15 15 15 15 15 15 15 15 15 15 14 13 13 13 13 13 12 11 10 10 9 8 7 6 5 4 4 5 5 5 6 7 6 6 6 7 9 9 9 8 9 10 10 11 11 12 11 11 11 10 11 12 12 12 12 11 9 8 8 9 11 10 9 10 11 11 11 11 11 11 10 11 12 11 11 11 10 11
18 18 17 17 16 16 16 14 14 13 13 13 13 13 14 14 14 13 13 13 13 13 13 12 11 10 9 8 6 4 2 2 2 3 3 2 3 4 4 3 3 4 5 6 6 6 7 9 9 9 10 11 12 12 11 10 10 10 11 10 9 10 11 10 8 7 6 8 8 9 11 12 10 9 10 11 12 11 12 13 12 12 11 9 12
19 18 17 17 16 16 16 15 13 12 11 10 11 12 13 13 12 12 12 12 11 11 11 11 10 9 8 6 5 3 3 4 5 5 4 4 4 3 3 2 2 3 4 5 6 7 7 7 6 7 9 10 10 9 9 8 9 9 9 8 7 6 7 7 6 5 5 6 7 7 8 10 10 11 11 12 12 12 13 13 12 12 12 10 12
18 18 16 16 16 16 17 17 16 14 12 11 11 11 12 12 11 11 11 11 11 11 10 10 10 9 8 6 4 3 5 8 7 7 7 7 5 4 4 3 2 2 3 5 6 5 5 5 4 5 6 4 4 5 7 8 7 6 4 3 3 1 2 3 4 5 6 7 8 9 9 9 11 12 12 12 13 13 13 13 12 12 13 12 11
18 17 16 16 16 15 15 15 14 14 14 13 11 11 11 12 12 11 11 11 11 10 9 9 8 6 5 5 3 3 6 8 6 7 7 7 5 3 3 3 1 1 3 3 4 4 3 3 3 3 3 3 5 9 8 5 6 6 6 5 4 4 5 5 9 11 12 11 11 11 11 11 12 13 13 13 13 13 13 12 12 12 12 12 11
16 16 16 16 16 15 16 16 14 12 13 13 13 13 13 13 13 12 11 11 10 9 9 8 6 4 3 3 3 2 4 5 5 5 5 4 2 1 2 2 2 2 1 1 0 2 1 1 1 2 3 4 4 7 11 14 16 15 15 16 15 14 12 10 12 14 14 13 13 13 13 11 12 13 14 14 13 13 12 11 12 11 11 12 11
15 16 16 15 15 15 16 18 17 14 13 14 14 14 14 13 13 11 9 9 8 8 9 8 7 5 4 3 4 1 3 3 3 3 3 3 3 4 2 1 3 3 4 4 2 0 1 2 3 3 4 4 4 10 13 14 14 16 18 21 22 20 18 17 17 18 16 15 15 16 15 12 12 13 14 15 13 12 12 12 13 11 10 11 10
12 13 14 13 14 15 16 17 17 16 16 15 14 14 14 14 13 10 10 9 8 8 8 7 7 5 4 4 4 2 1 1 2 1 1 1 4 7 5 4 5 6 6 5 4 4 4 6 8 8 8 8 10 13 14 15 17 18 20 23 23 22 21 21 21 21 19 17 18 17 15 13 13 12 12 13 13 12 12 13 13 12 10 9 8
10 11 12 12 11 12 12 13 15 15 14 14 13 14 14 14 13 12 13 12 11 9 7 5 6 5 5 4 4 4 2 2 2 2 2 4 6 7 6 7 8 8 8 8 8 9 10 10 12 13 13 13 13 13 15 17 19 21 23 25 27 26 24 22 21 21 20 18 18 16 15 15 16 15 13 12 12 12 11 10 11 10 9 9 8
10 11 11 12 12 11 10 11 11 11 11 12 13 13 13 14 14 14 15 14 12 11 9 7 6 7 7 6 5 5 4 4 4 4 5 7 8 10 12 13 14 14 13 12 13 13 13 13 13 14 15 15 13 13 15 18 22 23 22 23 24 24 24 22 20 20 19 18 16 15 16 16 17 16 15 13 13 12 10 10 11 11 11 10 10
10 10 10 11 12 11 10 10 11 10 10 12 13 11 11 14 16 15 15 14 12 11 11 9 7 8 9 7 8 10 10 9 8 7 7 8 10 13 15 16 17 18 18 17 17 17 16 15 14 14 13 13 13 14 15 18 21 20 19 18 18 19 19 18 19 19 18 18 17 16 16 17 17 18 18 17 16 15 12 12 13 13 12 11 11
7 8 8 8 9 9 9 9 10 9 10 11 12 11 12 15 15 14 14 13 12 12 13 12 11 12 12 12 14 16 15 12 11 11 11 13 15 16 17 18 19 20 19 18 18 18 16 14 14 13 13 14 15 15 15 17 18 17 17 17 17 17 15 14 14 16 16 16 15 15 15 16 15 16 18 19 19 17 15 13 14 13 12 12 12
6 5 6 5 6 7 9 10 10 9 9 10 11 11 12 13 13 13 14 15 15 14 13 14 16 17 17 17 18 19 17 14 13 14 16 17 19 19 19 20 20 19 18 17 18 19 18 16 15 15 15 17 17 16 16 16 17 16 16 16 17 16 14 13 12 12 12 12 12 13 13 14 13 13 15 16 17 16 15 14 13 13 12 12 12
8 7 7 8 8 9 11 12 12 12 11 11 11 12 13 14 15 17 18 17 17 15 13 15 18 18 17 17 17 17 18 18 17 17 18 19 20 21 21 21 20 19 18 17 18 17 17 17 17 15 16 17 17 17 17 17 17 16 15 16 16 14 12 12 12 11 10 11 11 11 12 12 12 12 12 13 14 14 14 13 13 12 11 11 12
9 9 10 11 10 12 13 13 14 15 15 15 16 16 16 16 16 18 18 18 19 18 17 19 21 20 18 18 18 18 20 21 20 20 21 20 20 21 21 20 20 20 19 19 18 16 16 19 20 18 18 19 18 18 18 18 17 17 16 15 15 14 12 11 11 10 10 10 10 10 10 10 11 11 12 12 13 13 13 12 12 11 11 10 11
10 12 13 12 12 14 15 12 13 15 17 19 19 17 16 15 15 16 20 22 22 21 21 23 24 23 20 19 19 19 19 19 19 19 20 19 20 21 22 22 22 22 21 20 19 17 19 23 24 21 21 21 20 20 20 19 20 20 19 17 16 15 13 11 11 10 10 10 10 10 11 10 11 12 12 12 13 14 13 12 12 11 10 9 9
12 14 15 14 13 15 15 13 14 16 17 18 18 19 19 18 18 21 24 26 24 23 22 23 23 21 19 17 16 16 16 17 17 18 19 21 22 23 23 22 21 22 22 21 20 21 25 26 23 21 20 21 21 21 21 21 21 20 18 17 17 15 13 12 11 11 10 10 10 10 10 11 11 12 13 13 13 14 14 12 12 12 10 10 10
13 15 15 14 14 14 13 13 15 16 18 20 19 19 19 19 19 20 20 20 20 19 19 19 19 18 18 18 17 17 16 16 17 19 21 23 25 24 23 22 21 21 22 21 21 23 26 25 22 21 21 22 22 22 21 21 20 19 18 17 16 15 13 12 11 10 9 9 10 9 10 11 11 12 12 12 13 14 14 13 12 12 11 11 11
15 16 16 16 16 15 16 16 15 15 16 17 17 16 16 17 16 15 14 15 16 15 15 16 17 17 17 18 19 17 16 17 19 22 23 24 24 24 23 24 23 22 22 23 24 26 27 25 23 22 22 22 21 21 21 20 20 20 19 17 15 14 13 11 10 10 9 9 10 10 10 10 11 11 11 11 11 13 14 13 13 12 11 11 11
18 17 17 18 18 17 18 18 17 16 15 14 14 14 14 14 14 13 14 14 14 15 16 16 17 17 18 19 19 18 17 17 20 22 24 24 24 24 24 25 25 26 27 27 27 26 24 22 21 21 20 20 19 19 19 19 19 18 17 15 14 13 12 11 11 10 10 10 10 10 10 10 10 11 11 10 10 12 14 14 13 13 13 13 12
18 16 17 17 17 17 17 17 16 15 14 13 13 13 12 13 13 13 13 14 14 15 16 17 16 17 19 21 20 19 19 19 19 21 22 22 23 25 26 26 25 25 25 24 23 23 22 22 21 20 19 19 18 17 15 14 13 13 13 13 13 12 11 11 11 10 10 10 10 10 10 10 10 10 10 10 10 11 13 14 13 14 14 14 12
18 16 15 15 15 15 15 15 14 13 13 13 13 12 11 11 11 10 11 11 12 14 15 16 16 17 19 21 22 21 20 20 20 20 19 19 20 21 20 20 18 18 18 19 20 21 21 19 17 16 14 14 13 12 12 11 11 11 11 11 11 11 11 10 10 10 10 10 10 10 10 10 10 10 10 10 10 10 12 13 12 13 14 13 11
17 16 16 16 16 15 15 14 14 14 15 16 16 15 14 13 12 11 11 11 12 13 15 16 16 16 18 20 21 21 20 20 20 21 21 19 18 17 16 16 15 16 19 20 18 16 14 12 11 10 9 9 9 9 10 10 10 11 11 11 11 11 11 11 9 10 10 9 9 10 10 10 10 10 10 11 10 10 11 12 12 12 13 12 11
15 15 15 15 15 15 15 15 15 15 15 16 18 18 17 16 15 14 14 13 13 14 16 16 16 17 19 19 18 19 21 22 22 22 21 19 17 16 16 16 17 20 21 17 13 11 10 10 9 8 7 7 8 8 8 8 8 9 10 10 11 11 12 12 11 10 10 10 9 10 11 10 11 11 11 12 12 11 11 12 12 12 12 12 12
14 13 13 13 13 13 14 14 14 14 14 15 16 18 18 18 17 16 15 14 14 15 16 17 19 21 22 21 20 21 23 24 23 22 20 19 17 16 16 17 20 21 19 13 10 10 9 8 8 7 7 7 7 7 8 8 9 9 9 10 11 11 12 13 12 11 11 11 10 11 11 11 11 12 11 12 12 12 12 12 12 12 12 12 12
12 12 12 12 12 12 13 13 13 14 14 13 14 15 16 17 17 17 16 16 16 16 17 19 21 23 24 25 26 26 25 24 23 21 20 19 18 17 17 19 20 19 15 11 9 9 8 7 7 6 6 7 7 7 7 8 9 9 9 9 10 10 11 11 11 11 11 11 11 11 11 11 11 11 11 11 12 12 12 12 12 12 13 12 13
11 12 12 12 12 12 12 13 13 13 13 13 13 13 14 15 15 16 17 17 17 18 18 18 20 22 23 24 25 26 24 23 22 21 19 18 18 18 18 19 18 15 12 9 8 7 6 7 6 5 5 6 6 6 7 7 8 8 9 9 9 9 9 8 9 11 10 9 10 10 10 10 11 11 10 11 11 11 11 12 12 12 13 13 13
10 12 12 12 12 12 12 12 12 13 13 13 13 13 13 15 15 16 16 17 17 17 17 18 19 20 21 21 22 22 23 22 21 19 18 18 17 17 18 17 15 12 9 8 7 6 6 6 6 6 5 5 5 5 6 6 7 8 9 8 7 7 7 8 9 11 10 9 9 10 10 10 10 11 10 10 11 11 11 12 12 13 14 15 15
11 12 13 12 12 12 12 12 12 13 13 13 13 13 14 15 15 16 16 16 16 16 16 17 18 19 20 20 21 21 21 20 19 19 18 16 17 18 17 15 12 10 8 7 7 7 6 7 7 6 5 5 5 5 5 5 7 8 8 8 7 7 8 8 10 12 11 9 9 10 10 9 10 10 10 10 11 11 11 12 13 14 15 16 16
13 13 13 12 11 11 11 11 12 12 13 13 13 14 15 15 15 15 15 16 17 16 15 16 18 19 20 20 20 20 20 19 18 17 16 16 18 17 14 10 9 8 8 7 7 7 7 7 6 6 5 5 4 4 4 6 6 6 6 7 7 8 8 8 9 11 11 9 8 9 9 8 9 9 9 9 10 11 12 13 14 14 15 16 16
13 13 13 12 12 12 11 11 12 12 12 13 13 14 15 14 14 15 15 15 16 16 16 17 19 19 18 19 20 19 18 17 16 15 15 17 16 11 7 7 8 7 7 8 8 7 7 7 6 5 5 4 3 4 4 5 5 5 4 4 5 6 7 7 8 10 10 8 7 8 8 8 8 9 9 10 10 11 12 13 13 13 14 15 15
12 13 13 13 12 13 12 12 12 13 13 13 13 13 14 14 14 15 15 15 16 16 17 17 17 17 17 18 19 18 18 17 15 14 15 15 12 8 5 7 7 6 7 8 7 6 6 6 5 4 3 3 3 4 4 4 4 5 5 4 4 5 6 6 7 8 9 7 7 7 7 7 8 8 10 10 10 11 12 12 13 13 14 14 15
12 14 15 15 14 13 13 13 14 14 13 13 13 13 13 14 14 14 15 15 15 16 16 16 16 16 17 18 18 18 18 16 15 14 14 12 9 7 6 7 6 6 7 7 6 5 5 5 4 3 3 3 3 4 4 3 3 3 4 4 4 5 6 6 7 8 8 7 6 7 7 8 8 9 10 11 11 11 12 12 12 13 13 14 15
13 15 18 17 14 13 14 14 14 14 13 13 14 13 13 13 14 14 15 16 15 15 15 15 15 16 17 19 20 19 17 14 13 13 11 10 8 7 7 6 6 6 6 6 6 5 5 5 4 3 3 3 3 3 3 2 2 2 3 4 4 5 6 6 7 7 7 6 7 7 8 9 10 10 10 10 11 11 11 12 12 12 13 13 15
13 16 19 17 13 13 14 15 14 15 14 14 14 14 13 13 13 13 14 15 15 15 15 14 14 16 18 20 22 20 16 13 12 11 9 8 8 7 7 7 7 6 6 6 5 4 4 4 3 2 2 2 2 2 2 3 3 3 3 4 4 5 6 6 6 6 6 6 7 8 8 9 10 10 10 10 10 11 11 11 12 12 13 13 15
13 15 17 16 13 13 14 14 14 14 14 14 15 14 14 14 14 14 14 14 14 15 15 14 13 15 18 21 21 18 14 11 11 11 9 8 8 7 7 7 7 6 6 7 6 4 4 3 1 1 2 3 2 2 2 2 3 3 3 3 4 5 6 6 6 5 5 6 7 8 8 9 9 9 9 9 10 10 11 12 12 13 13 14 14
12 13 15 16 14 14 13 13 13 14 14 14 14 13 13 14 14 14 14 14 14 14 14 13 12 14 18 20 19 15 11 10 10 10 9 8 8 8 8 7 7 7 7 7 5 4 3 2 2 3 4 3 2 2 2 2 3 3 3 3 4 5 6 5 5 5 5 6 6 7 8 8 8 8 8 9 10 10 11 11 12 13 14 14 14
11 12 14 15 14 14 13 12 13 14 13 14 13 13 13 14 14 14 14 14 14 14 15 14 13 14 17 19 18 14 11 10 10 10 9 8 8 8 7 7 8 8 8 6 5 4 4 4 5 5 4 3 3 3 3 2 3 3 3 3 3 4 4 4 4 5 5 6 6 7 8 8 7 8 8 8 9 10 11 11 12 13 14 14 15
12 12 13 14 14 14 14 13 13 13 13 13 13 13 13 13 14 13 14 14 14 14 15 14 14 14 16 17 16 14 12 11 10 10 9 8 8 8 8 9 10 9 8 7 6 6 6 6 6 5 4 4 3 3 3 3 3 3 3 4 4 4 4 4 4 5 5 6 7 7 7 7 7 7 8 9 9 10 11 12 12 13 14 14 15
13 12 13 14 14 14 14 13 13 13 13 13 14 14 14 14 14 14 13 13 14 14 14 14 14 14 15 15 15 13 12 11 11 10 9 8 8 9 10 11 10 9 9 8 8 8 7 6 5 5 4 4 3 3 3 3 3 3 4 4 4 4 3 4 4 5 5 5 6 6 6 6 7 7 8 9 10 10 11 12 13 14 14 14 15
14 13 13 14 13 13 14 13 14 14 14 14 14 15 15 15 14 13 12 12 12 13 14 14 14 14 14 14 14 13 13 12 11 10 10 9 9 10 11 11 11 10 10 10 9 8 7 6 6 5 4 4 4 3 3 3 3 3 3 4 4 3 3 3 4 4 4 4 5 6 6 6 7 8 8 10 10 11 12 12 13 14 14 14 15
14 14 14 14 13 13 14 14 14 15 15 15 15 15 15 14 14 13 12 12 13 14 14 14 14 15 15 14 14 13 13 12 11 10 10 10 11 12 12 12 12 11 11 10 9 8 7 6 6 5 4 4 4 3 3 3 2 2 3 3 2 2 4 5 3 3 3 3 4 5 6 6 7 8 8 9 10 11 12 13 13 14 14 15 15
15 14 14 14 14 14 14 14 15 15 16 15 15 15 14 14 14 14 13 14 14 14 14 15 15 15 15 15 15 14 13 12 11 11 12 12 12 13 12 12 12 11 10 10 9 8 7 6 5 5 4 4 3 3 3 3 2 3 4 2 0 1 3 4 3 3 4 4 5 5 6 7 8 8 9 9 10 11 12 13 14 14 14 15 15
15 15 14 14 15 14 14 14 15 16 16 15 15 15 14 14 14 14 14 14 15 15 15 16 16 16 16 15 15 14 13 13 12 12 12 13 13 12 12 12 12 11 10 10 9 8 7 6 5 5 4 4 3 3 3 2 3 4 4 2 2 1 1 2 3 4 5 5 5 5 6 7 8 9 9 9 10 11 12 13 14 14 14 14 15
16 16 15 15 15 15 15 15 16 16 16 15 15 15 15 14 14 14 15 16 16 16 16 17 17 16 16 15 14 14 13 13 13 13 13 13 13 12 12 12 12 11 10 9 9 8 7 6 5 4 3 3 3 2 3 3 4 4 4 4 3 1 1 2 4 5 6 6 5 5 6 7 8 9 9 9 10 11 12 13 13 14 14 13 14
Wind_Direction
202 203 204 205 205 206 207 207 209 211 209 210 213 214 214 214 213 212 213 216 216 216 220 225 226 228 230 232 232 230 227 229 232 232 231 234 244 255 261 262 262 272 281 276 269 270 270 271 272 272 278 281 282 285 286 285 283 282 282 279 276 275 273 273 278 287 291 294 303 307 311 314 311 314 317 312 313 318 317 314 310 310 312 307 304
202 203 205 208 209 208 208 208 208 211 211 211 212 214 213 212 212 213 215 217 219 221 223 224 224 227 231 235 236 236 235 235 237 236 233 233 242 252 259 259 256 268 286 304 301 286 280 282 283 279 278 279 280 283 282 281 281 283 283 281 279 278 277 277 280 288 293 298 305 302 303 311 313 314 315 313 314 315 315 316 314 310 311 313 311
203 202 205 208 210 211 210 208 208 210 214 215 215 215 213 211 211 215 219 220 220 220 223 224 222 223 230 236 240 244 250 252 253 249 240 237 244 255 267 266 254 251 252 281 297 288 280 281 283 280 276 274 275 275 275 278 280 280 281 286 289 287 284 283 281 286 294 301 304 299 302 312 310 309 314 314 314 314 316 319 319 317 316 315 313
205 202 205 208 209 210 211 211 209 210 214 217 218 219 218 215 216 220 223 225 223 219 220 223 223 224 230 238 240 243 247 252 260 263 254 245 243 250 258 252 244 240 240 258 272 269 264 266 266 266 270 270 271 272 270 272 275 273 272 277 283 282 284 289 289 289 295 300 306 308 313 316 312 317 323 320 319 315 314 319 319 319 320 319 318
207 202 205 208 208 209 211 212 211 212 216 219 219 221 222 221 221 224 227 229 229 224 220 221 225 228 232 239 242 241 240 245 253 258 256 252 243 243 248 238 230 236 254 269 273 261 255 257 259 265 271 271 271 271 268 271 274 273 274 279 283 280 284 290 288 292 298 302 311 316 318 322 324 326 326 325 325 320 317 322 322 323 327 326 327
203 199 201 205 206 208 210 212 213 215 219 222 222 222 223 224 225 227 228 230 231 229 225 226 229 232 236 242 246 245 244 248 249 249 256 259 248 246 252 247 235 239 253 262 263 258 256 257 263 271 271 269 271 270 268 271 274 273 275 285 288 284 288 295 296 305 305 304 311 313 316 328 332 330 334 338 334 328 328 329 329 335 338 336 343
201 198 197 197 199 202 206 210 213 216 218 222 224 224 226 227 228 228 229 231 232 230 230 231 232 236 239 240 242 246 252 259 257 253 263 266 253 252 261 259 248 243 242 239 241 251 257 258 264 269 267 268 271 268 263 260 262 271 279 286 288 287 295 306 308 310 311 313 320 320 325 338 340 334 343 350 345 344 344 338 337 341 344 360 15
199 197 194 193 193 196 198 202 208 212 215 220 224 225 228 232 232 231 230 229 230 231 234 235 233 233 234 231 229 231 239 248 256 270 289 297 285 274 267 265 255 236 227 225 233 244 249 252 257 262 267 271 272 273 277 274 270 281 292 292 290 295 304 310 310 312 325 332 333 335 342 354 356 345 346 354 353 353 350 342 338 335 341 20 35
198 197 194 194 194 190 188 190 195 201 206 212 220 225 227 231 233 232 231 231 231 234 237 238 236 234 229 223 221 213 222 247 264 281 297 317 321 305 284 276 254 211 207 224 242 252 260 265 268 268 273 281 282 278 279 282 282 289 297 291 284 294 309 318 319 320 339 350 351 357 7 15 12 358 353 357 352 347 346 342 338 340 349 16 30
199 198 196 195 190 183 183 188 190 192 196 201 210 218 220 222 224 226 229 232 234 235 235 235 238 238 229 219 209 206 235 254 271 287 296 308 317 309 294 285 257 219 236 245 247 259 274 277 276 279 276 285 338 324 288 279 284 286 289 276 263 308 12 9 17 24 30 32 29 29 34 29 17 6 360 357 350 347 349 346 347 359 7 9 13
197 196 199 198 192 187 191 199 197 192 192 193 196 204 211 214 214 217 222 226 228 230 230 229 231 231 223 208 175 186 242 261 283 300 306 314 321 309 296 300 302 273 273 257 258 278 284 257 256 283 276 273 356 3 357 15 48 64 76 87 91 78 69 59 57 59 61 61 51 41 41 30 17 14 7 359 355 353 353 355 4 16 14 5 4
193 191 196 196 193 193 197 206 209 202 197 195 193 198 205 207 206 209 215 218 220 223 222 219 213 202 201 182 143 178 266 285 305 315 321 330 1 42 330 325 2 353 336 122 280 293 283 180 258 321 333 316 349 53 79 81 74 71 72 75 76 74 75 75 72 69 69 70 63 53 47 34 22 21 15 6 1 357 357 4 13 20 16 9 9
197 194 197 196 194 194 197 204 210 210 203 199 197 200 203 202 202 204 203 202 204 209 210 205 195 188 183 152 114 119 285 309 328 331 335 349 52 76 77 128 108 86 83 94 92 110 75 45 39 44 39 37 83 107 105 93 81 77 77 77 73 70 71 75 78 78 74 73 71 60 48 37 28 23 18 14 12 9 8 8 10 18 21 16 15
199 194 199 202 201 200 199 201 204 205 204 202 199 198 197 197 198 193 182 176 175 183 189 182 175 170 162 142 108 93 12 360 24 21 360 57 102 104 110 119 108 90 79 83 86 84 71 57 61 67 67 77 96 102 97 91 88 85 80 77 74 70 70 72 77 80 77 74 72 63 51 42 36 29 25 23 21 18 15 10 9 14 16 11 11
194 193 198 202 203 206 206 203 201 200 202 204 202 199 200 200 196 185 175 168 163 166 164 150 145 136 125 124 108 84 59 45 67 88 102 119 121 116 110 104 100 93 85 86 87 84 80 78 81 85 85 85 86 87 90 91 89 86 81 79 76 73 71 70 72 76 75 73 72 66 58 50 44 41 38 32 26 18 11 8 5 0 359 357 355
198 199 204 205 206 212 217 217 210 199 196 206 209 205 199 191 182 175 171 165 163 169 164 142 129 118 110 110 104 85 63 60 76 92 106 117 114 104 100 100 100 97 92 90 89 87 85 86 87 88 87 84 81 83 89 91 88 86 83 79 77 75 73 70 69 71 72 73 74 70 63 54 47 46 48 47 39 23 9 8 3 352 350 350 347
206 204 208 212 213 214 216 215 208 197 195 204 203 189 173 169 169 167 165 160 158 163 158 143 125 113 108 106 97 87 80 83 96 107 114 118 109 102 101 101 99 96 92 89 86 84 84 84 85 83 81 83 89 93 93 91 88 86 83 81 80 80 77 74 72 71 72 72 70 66 59 50 41 39 40 44 44 33 22 16 7 357 353 351 348
196 201 200 203 205 201 195 191 188 187 190 191 184 167 159 164 168 169 169 165 159 153 145 134 120 112 109 103 97 94 92 97 110 116 117 114 109 106 106 104 101 97 93 89 86 84 82 81 85 89 91 94 98 97 94 93 91 89 88 85 82 79 76 74 72 69 66 64 60 55 51 44 37 32 28 31 36 33 27 18 6 2 358 353 350
147 169 178 177 180 177 172 169 168 170 172 174 174 171 169 174 177 173 169 162 152 142 133 124 116 112 108 103 99 100 103 111 119 120 119 115 110 109 109 105 101 96 91 87 84 82 81 83 88 96 100 101 100 97 94 91 89 89 88 83 78 76 72 69 68 64 58 55 51 46 43 38 34 30 25 25 27 27 27 18 8 6 358 350 350
128 135 137 140 150 156 159 159 158 161 163 164 168 174 179 183 176 162 151 142 135 127 117 108 101 96 94 93 92 99 110 117 119 114 109 107 109 111 109 106 102 98 94 90 85 81 81 87 94 100 104 103 102 101 98 93 89 86 82 77 75 76 74 68 65 62 55 51 46 41 38 32 30 28 23 22 22 20 21 17 10 7 357 348 347
118 115 119 130 140 144 146 147 148 155 161 163 164 167 169 167 156 141 132 127 125 119 108 102 97 91 91 96 100 107 115 118 115 109 104 105 110 111 108 106 104 100 96 93 89 86 87 92 96 100 100 99 98 98 98 95 91 86 82 79 79 80 78 70 62 57 53 48 42 37 32 27 25 23 18 16 15 11 8 8 6 3 356 348 343
110 112 122 129 130 133 138 137 136 144 154 157 155 148 139 133 127 123 123 124 122 116 109 106 102 97 97 102 106 111 116 117 113 109 107 108 109 107 106 105 103 98 96 94 92 92 96 99 100 101 100 98 96 94 93 91 91 91 89 88 83 75 69 63 56 51 47 42 37 32 26 19 16 14 9 6 5 1 357 355 354 351 346 341 334
111 114 121 121 117 123 133 131 128 134 140 140 134 126 123 124 121 120 121 120 116 112 110 108 104 102 103 103 103 104 108 110 110 110 111 111 107 104 105 105 102 100 101 100 98 100 102 102 102 101 99 97 95 94 92 90 89 89 87 84 78 70 63 59 54 48 43 38 32 27 20 13 8 6 4 1 359 356 352 348 345 342 336 330 326
113 110 110 109 109 113 119 119 119 124 128 127 124 121 123 124 120 119 120 119 116 114 113 110 109 111 112 108 105 103 101 102 109 116 118 114 109 107 107 107 105 104 103 103 105 107 107 106 105 102 99 96 94 92 92 91 89 86 80 74 71 66 60 56 51 46 41 35 27 21 15 11 6 2 358 355 354 353 352 348 345 341 334 328 324
110 107 106 109 111 111 109 108 107 109 115 118 117 119 121 119 117 119 120 119 118 118 117 114 113 114 112 110 110 108 104 104 111 117 118 115 113 115 115 113 111 110 109 110 112 111 110 107 104 99 96 94 92 90 87 86 84 81 75 69 65 61 56 52 47 40 34 27 22 16 12 8 5 359 352 349 350 352 351 348 346 344 340 336 331
110 108 109 112 113 112 109 108 108 108 110 111 111 115 118 117 116 119 120 121 122 122 121 119 117 116 116 115 114 112 110 111 114 117 117 115 114 115 115 114 115 115 115 115 115 113 111 108 104 100 97 94 91 88 83 78 74 72 70 66 62 57 52 47 40 33 26 20 15 11 7 2 358 355 352 350 352 354 352 348 346 346 346 343 338
113 113 113 113 113 111 109 109 110 110 108 107 108 110 115 116 116 117 119 122 124 124 124 123 122 121 121 120 118 117 118 118 119 119 118 114 113 111 110 111 112 112 113 114 114 113 112 109 105 102 98 93 89 86 83 77 72 69 66 61 57 53 49 44 38 32 23 16 11 6 1 358 356 356 356 356 356 357 355 351 347 347 346 342 337
122 120 117 112 109 108 107 107 106 103 100 104 104 101 102 107 103 99 103 111 120 126 127 124 123 124 125 125 125 124 123 124 127 129 126 123 120 118 116 116 114 115 117 118 116 114 112 109 105 101 97 94 90 88 85 79 72 66 61 58 55 49 42 37 33 29 20 13 9 4 359 358 359 357 356 356 356 355 356 353 349 345 345 342 339
122 119 116 112 110 109 106 104 103 101 101 104 103 96 96 99 96 93 98 103 112 123 126 123 123 125 126 128 132 132 131 134 138 139 135 133 131 129 127 126 125 126 127 125 123 122 120 115 111 108 102 98 94 90 86 79 72 67 60 54 50 45 37 30 27 24 17 9 6 5 1 359 359 357 355 356 355 354 355 354 350 347 347 345 345
118 117 116 114 114 113 109 105 104 104 105 105 101 97 98 103 105 104 104 105 113 124 127 124 125 129 128 128 133 137 139 141 143 141 138 137 137 133 130 134 136 133 130 129 127 125 122 114 108 101 93 88 84 80 76 72 70 67 59 51 45 40 34 27 22 19 14 9 7 5 2 359 357 356 355 354 353 353 354 355 353 351 350 350 350
117 117 116 113 113 116 116 112 107 107 107 106 104 101 99 99 100 102 106 112 120 128 130 130 133 135 134 130 130 134 139 141 141 138 134 132 132 129 129 137 139 134 130 130 127 121 115 108 102 96 87 79 72 65 61 58 54 49 46 45 40 34 28 22 16 11 9 9 8 5 2 1 358 356 355 354 352 352 354 356 356 354 353 353 353
121 120 119 115 113 116 120 120 116 113 111 110 111 111 108 103 98 96 102 112 120 124 128 132 134 136 135 133 132 134 138 139 138 134 131 128 128 129 133 138 138 133 130 130 125 117 111 103 95 88 82 74 66 57 50 46 40 33 30 30 28 24 21 17 12 8 6 5 4 2 1 0 357 353 352 353 352 353 355 357 357 357 355 354 353
125 127 129 126 122 122 126 127 126 125 123 121 120 120 120 117 110 102 101 108 115 120 124 128 131 132 134 134 134 134 136 138 137 135 133 131 130 132 138 141 139 134 130 125 119 111 105 100 95 86 80 76 68 56 43 35 31 25 18 15 16 18 18 13 8 6 3 1 1 1 359 358 356 353 352 355 357 356 357 359 359 358 357 355 352
128 134 138 137 134 132 133 134 135 134 133 132 130 127 126 125 122 118 114 112 113 115 119 126 132 134 135 135 135 135 136 138 139 137 135 134 134 135 139 141 137 130 122 118 115 109 100 97 95 87 80 75 67 57 47 34 25 19 14 14 17 18 17 14 10 5 360 359 3 4 1 359 359 356 355 359 2 360 360 1 0 359 358 355 351
132 134 136 138 139 138 137 138 140 139 140 140 137 134 131 130 130 129 128 126 124 119 118 124 132 136 138 139 140 140 139 139 140 139 138 136 135 135 137 137 133 125 118 114 111 107 101 99 97 91 85 81 71 59 47 30 19 16 15 14 16 16 13 14 13 6 359 360 6 4 360 0 3 360 358 2 4 2 2 2 0 358 357 354 349
137 138 140 142 143 141 139 139 140 141 142 143 141 139 139 139 138 136 134 134 134 130 125 127 133 136 139 141 141 142 141 141 141 142 143 141 140 140 141 137 130 125 120 115 112 108 105 104 103 99 95 89 74 53 33 20 13 13 13 11 15 16 11 8 9 3 356 357 4 3 360 3 5 1 359 2 4 2 2 0 358 356 356 352 348
145 146 148 148 145 142 140 139 140 141 141 142 143 145 146 146 145 143 142 141 140 137 135 136 137 138 141 144 146 145 145 145 145 147 148 149 153 161 155 131 127 129 125 122 123 121 116 114 112 107 99 86 60 32 18 14 12 13 14 12 17 15 7 3 5 1 354 352 1 3 360 2 5 1 358 0 2 2 1 358 355 354 354 351 348
151 151 152 150 147 146 145 143 144 145 144 146 148 150 152 152 150 150 149 148 146 146 146 148 148 148 149 152 153 152 151 150 150 153 157 164 177 192 170 137 138 141 133 130 132 130 123 119 113 102 90 69 36 18 15 17 20 17 10 4 4 6 1 359 1 359 353 352 359 3 359 359 3 2 360 360 1 359 358 357 355 352 351 350 350
153 156 155 150 149 152 151 149 151 152 152 154 156 155 155 156 157 157 155 154 154 155 156 158 160 159 156 157 159 160 159 158 159 163 169 177 183 179 159 151 152 146 139 138 139 132 120 113 106 92 72 47 29 24 26 27 25 17 7 1 358 356 355 356 358 358 355 356 1 3 359 358 1 3 1 360 358 356 355 355 354 352 350 350 349
158 161 160 156 156 160 159 158 161 163 164 164 163 162 163 163 164 164 162 163 164 164 164 168 168 163 161 163 165 166 168 171 173 173 172 173 172 165 161 163 158 150 149 150 144 135 125 116 106 89 60 42 38 46 46 32 22 20 9 2 1 358 356 358 360 360 360 4 6 6 3 0 359 360 1 360 357 353 353 353 352 351 350 348 348
163 164 166 166 167 168 168 171 174 175 175 174 171 172 172 170 171 171 170 172 174 172 174 177 171 163 167 172 172 172 178 182 180 175 171 168 171 171 167 164 160 157 158 157 149 139 128 117 104 77 59 58 59 64 54 28 15 14 6 2 5 1 357 1 7 7 7 13 13 9 6 2 358 358 0 359 354 351 351 351 351 351 350 349 350
171 169 171 176 179 177 178 182 182 181 182 182 181 182 180 178 180 181 178 180 183 182 183 182 170 163 172 177 175 178 189 190 178 173 172 170 173 172 164 161 162 162 160 158 152 142 133 123 101 82 89 84 71 60 48 24 11 8 2 7 12 4 356 2 12 15 14 19 16 8 3 2 359 359 1 358 352 351 352 351 350 350 349 349 350
183 179 180 183 187 188 188 187 184 184 187 188 189 189 187 185 187 188 186 186 187 186 187 183 167 162 172 176 174 177 189 186 175 175 177 173 169 168 164 161 161 160 160 159 154 149 149 143 123 113 112 103 78 58 49 36 25 16 11 15 18 8 2 7 20 24 21 18 12 6 4 3 360 359 360 356 352 351 352 349 348 349 347 346 347
190 190 189 190 192 195 195 191 189 189 190 190 190 191 191 190 190 189 189 189 187 187 189 185 170 161 166 171 174 181 189 185 179 179 180 174 170 172 172 168 165 163 161 159 157 155 151 141 131 124 118 107 91 80 72 62 45 30 24 25 23 18 17 24 32 31 23 12 3 2 4 1 356 355 356 353 349 349 348 346 345 345 344 343 344
193 194 194 193 194 196 195 193 192 190 189 190 191 190 192 195 194 190 190 190 188 189 191 186 174 164 162 168 177 187 190 186 181 180 180 179 178 177 172 168 168 170 166 160 156 150 143 138 135 131 124 115 106 101 94 79 65 56 48 39 33 36 41 43 38 31 22 10 0 360 1 357 350 351 352 348 345 345 344 341 341 341 341 341 340
195 195 195 194 194 195 194 192 193 192 190 192 193 191 192 196 197 195 194 193 190 189 189 186 179 172 168 172 181 186 185 183 182 183 185 186 183 178 172 168 169 169 164 155 150 144 140 139 137 131 126 120 112 111 109 97 84 76 67 58 54 56 59 50 37 29 23 13 3 359 357 350 344 345 346 344 342 343 340 338 339 340 339 338 335
196 195 197 197 196 197 196 194 194 194 193 194 195 194 193 195 196 196 195 193 190 188 187 186 184 180 177 177 178 179 180 183 184 185 185 182 175 170 168 165 163 160 154 149 147 145 143 141 137 132 127 123 121 121 118 109 99 85 79 79 71 65 73 67 36 15 11 9 1 355 348 342 338 341 343 341 340 340 339 338 338 338 336 335 333
198 196 198 198 197 198 197 194 193 195 194 193 194 194 192 191 193 193 191 189 188 187 186 184 181 178 176 175 175 177 182 186 184 182 180 173 165 161 160 160 159 157 153 152 152 151 146 142 138 134 129 125 127 130 129 123 120 107 103 103 85 72 99 100 65 24 24 18 353 339 336 335 333 335 338 337 335 336 337 335 335 336 334 333 333
201 198 197 197 196 196 195 192 191 192 191 188 189 190 189 190 192 192 189 187 187 187 184 180 176 174 174 177 179 182 184 183 179 175 172 166 161 160 161 161 161 160 159 157 156 153 150 148 144 142 140 137 137 143 145 142 131 123 127 136 295 22 94 99 73 48 46 24 349 330 329 330 327 327 331 331 330 331 333 331 332 333 333 332 332
201 200 198 196 195 194 192 190 190 190 188 186 185 185 186 188 190 189 186 185 186 186 183 179 176 175 177 181 183 182 179 175 173 170 167 164 163 164 164 164 165 166 165 162 159 158 157 155 153 152 151 146 142 147 151 143 127 134 159 214 273 319 69 53 32 34 31 10 344 328 326 327 324 324 327 327 326 329 330 330 330 332 332 332 332
200 200 198 196 195 194 191 189 189 189 187 187 187 186 185 186 186 184 184 186 186 185 184 181 179 180 183 184 183 179 175 172 171 169 168 168 168 168 168 170 171 171 169 166 165 167 165 164 170 174 165 157 157 155 151 150 156 178 221 251 264 270 354 8 12 13 11 5 350 327 323 325 324 323 324 325 327 329 328 328 329 330 330 330 331
Height
807 810 811 813 815 816 818 820 822 823 824 826 827 827 828 829 830 831 832 833 834 835 836 836 837 837 838 838 838 839 840 840 841 841 842 843 843 844 844 844 845 845 844 843 842 843 843 843 843 843 843 843 843 842 842 841 840 839 838 837 836 836 835 834 833 831 830 830 829 828 827 827 827 827 827 826 825 824 823 823 821 820 819 817 816
805 807 809 811 812 814 816 818 820 821 822 823 824 825 826 827 828 829 830 831 832 833 834 834 835 836 836 836 837 838 838 839 840 839 839 840 841 841 841 842 843 843 844 845 845 845 844 843 843 843 842 841 841 841 840 839 838 836 835 835 833 832 832 832 831 830 829 829 829 828 827 827 827 827 826 825 825 824 823 822 821 819 818 817 816
803 806 807 809 810 812 814 815 817 819 820 821 822 823 824 825 826 827 828 829 830 831 832 832 833 834 835 835 836 836 837 837 837 837 837 838 839 839 839 840 840 841 841 842 843 843 843 842 842 841 841 840 839 839 838 837 836 834 833 833 833 831 830 830 830 830 829 828 829 828 826 826 827 826 826 825 824 823 822 821 820 819 818 817 816
802 804 805 807 809 811 812 813 815 816 818 819 820 821 822 824 825 826 827 827 828 829 830 831 832 833 833 834 834 835 836 835 836 836 836 836 837 837 837 837 838 838 838 838 838 839 840 840 840 839 839 838 838 837 836 835 834 832 830 831 832 832 830 829 829 829 829 829 828 827 827 827 826 825 825 824 823 823 822 821 820 818 817 817 816
801 802 804 805 807 809 810 811 813 814 816 817 818 820 821 822 824 824 825 826 826 827 828 829 830 831 832 832 833 833 834 834 834 835 835 834 835 836 836 836 836 835 835 835 836 837 837 837 838 838 838 837 836 836 834 833 832 831 830 829 829 829 829 828 828 828 830 830 829 828 828 827 825 825 825 824 823 822 821 820 819 818 817 816 815
799 800 802 804 806 807 809 810 811 813 814 815 817 818 820 821 822 823 824 825 825 825 826 827 828 829 830 830 831 832 832 833 833 833 833 833 834 834 835 836 835 834 833 833 834 835 836 836 836 837 836 836 835 834 833 832 831 830 830 829 828 827 827 827 827 828 830 830 830 829 828 827 826 826 826 825 824 823 821 820 819 818 818 817 816
797 798 800 801 804 805 807 809 810 812 813 814 815 817 818 819 820 821 822 823 824 824 825 826 826 827 828 829 830 830 831 832 832 832 832 832 833 833 834 834 834 833 832 833 834 834 835 835 835 835 835 834 833 832 831 830 830 830 830 830 829 828 827 827 826 827 828 829 830 829 829 828 827 827 827 826 825 824 823 821 819 819 818 817 816
795 797 798 799 801 803 805 807 808 810 812 813 815 816 817 818 819 820 821 822 822 823 823 824 825 826 826 827 828 829 830 830 830 831 831 831 832 832 832 832 832 831 832 832 833 833 833 833 832 832 832 832 831 831 830 830 830 831 832 831 830 830 829 828 826 826 827 829 830 830 829 829 828 828 828 827 826 826 824 823 821 819 818 817 817
793 795 796 797 799 800 802 804 806 809 810 812 814 815 816 818 818 819 820 821 822 822 822 823 824 824 825 826 828 828 829 829 829 829 829 829 830 831 831 831 830 831 831 831 832 832 832 832 832 831 831 831 830 830 830 830 830 830 831 830 829 830 830 828 827 828 828 829 830 829 829 830 830 830 829 828 828 827 825 824 822 820 819 818 818
791 793 794 796 797 799 801 802 804 806 808 810 812 813 815 816 817 818 820 820 821 821 822 822 823 824 824 825 827 827 826 827 827 827 828 828 829 829 830 830 830 830 830 830 831 831 831 831 830 829 830 830 829 829 829 830 829 829 829 829 829 829 828 828 828 828 829 830 830 830 831 832 832 832 831 831 830 828 827 825 823 821 821 820 819
789 791 793 795 797 798 801 803 804 804 805 807 809 811 812 813 815 816 817 819 820 820 821 821 822 823 823 824 826 825 824 825 825 826 826 826 827 828 829 829 829 829 829 829 830 830 830 830 829 828 829 829 829 830 831 831 830 830 829 828 828 828 828 828 828 829 829 830 832 832 833 835 835 835 834 833 832 830 828 827 825 824 823 822 821
788 790 792 794 796 797 800 802 804 804 805 805 806 807 810 811 812 813 815 816 818 819 820 820 821 822 823 824 825 824 823 824 824 825 825 825 826 827 828 828 828 829 829 829 829 829 829 829 829 829 830 829 830 832 832 832 831 831 831 830 829 830 831 830 830 831 831 832 833 835 836 837 838 837 836 835 834 832 830 828 827 826 825 824 823
787 789 790 792 794 796 798 799 801 803 804 804 803 804 807 809 810 811 813 814 816 818 819 820 821 822 823 823 823 823 823 823 823 824 824 824 825 826 827 827 827 828 828 828 828 828 828 829 830 831 831 830 831 832 832 831 832 832 833 832 831 832 833 833 832 833 834 835 836 837 839 840 839 838 837 836 835 833 831 830 829 828 827 827 826
787 788 790 792 793 795 797 797 799 801 802 802 802 803 805 807 809 810 811 813 815 818 819 820 820 821 822 823 823 822 822 822 822 823 823 823 824 825 826 826 826 827 828 828 828 828 828 830 831 832 832 832 833 833 833 833 833 834 834 833 832 833 835 835 834 835 836 837 838 839 841 841 840 839 838 837 836 835 834 832 831 830 829 828 827
787 788 790 791 793 795 797 797 797 798 799 800 801 802 804 805 808 810 811 812 815 817 818 819 819 820 821 822 822 822 821 821 822 822 822 823 824 824 825 826 827 828 828 828 828 829 829 830 831 832 833 834 835 836 836 836 835 835 835 834 834 835 836 837 837 837 838 839 840 841 842 842 842 840 839 838 837 837 835 834 833 831 830 828 827
788 789 790 790 792 794 796 797 797 797 798 800 801 802 803 805 808 810 810 812 813 815 816 817 818 819 819 821 822 821 820 820 821 822 822 823 824 825 826 827 828 829 830 831 831 830 831 831 832 834 835 836 837 838 839 838 837 836 837 837 837 837 838 839 839 839 840 840 842 843 844 844 843 842 840 839 838 837 836 835 834 832 830 828 826
787 788 790 791 792 794 796 797 797 797 798 799 800 801 802 804 807 809 810 811 813 815 816 816 818 818 818 820 820 819 819 820 821 822 823 824 825 827 828 829 830 832 833 833 833 833 833 834 834 836 837 837 839 840 840 840 838 838 839 839 840 840 841 842 842 841 842 843 843 845 845 845 844 843 842 840 839 839 838 836 835 834 832 830 828
786 788 789 791 792 794 795 795 796 797 798 799 800 801 802 804 806 808 809 810 813 816 817 817 817 817 817 819 819 818 819 821 823 824 825 825 826 828 830 831 832 833 834 834 835 835 836 837 838 838 839 840 840 841 841 841 840 840 841 842 842 843 844 845 845 845 845 845 846 846 846 846 846 844 843 842 841 840 840 839 838 836 834 833 831
787 788 790 790 792 793 794 794 795 796 798 799 800 801 802 804 806 807 808 810 813 817 818 817 817 818 818 820 819 820 822 824 826 826 826 827 828 829 831 831 832 834 835 835 837 837 839 840 841 841 842 842 842 843 843 843 842 843 844 844 845 845 846 847 847 848 848 848 848 848 847 847 847 846 846 845 844 843 842 841 840 839 837 836 834
787 788 789 790 792 793 793 794 795 796 798 799 800 802 803 804 805 806 808 811 815 818 819 819 820 821 822 822 823 824 826 828 829 829 829 830 830 831 831 832 833 834 836 837 839 840 842 843 843 844 844 844 844 845 845 845 845 845 846 846 847 848 849 849 850 850 850 850 850 849 849 849 849 848 848 847 845 844 843 842 841 840 839 838 836
787 789 790 791 792 793 793 795 795 796 796 797 800 802 803 804 806 807 809 812 814 817 819 821 821 823 824 825 826 828 830 831 831 832 832 832 833 832 833 833 834 836 838 840 841 843 845 845 846 846 846 846 846 846 846 846 847 847 848 848 849 850 851 851 851 851 851 851 851 851 851 850 850 850 849 848 847 845 844 843 842 841 840 839 838
788 790 791 792 792 793 793 794 795 796 797 798 801 803 805 807 810 811 811 812 814 817 820 821 822 824 826 828 829 831 832 833 833 834 834 834 834 835 835 836 838 839 840 843 844 846 848 848 849 849 848 848 848 848 848 849 849 849 850 851 851 852 852 853 853 853 853 853 852 852 852 851 851 850 850 849 847 846 845 844 843 842 841 840 839
789 791 793 793 793 793 794 795 795 797 799 801 804 806 807 809 812 813 813 814 816 819 821 823 824 826 829 832 833 833 834 835 835 836 836 836 837 837 838 840 841 842 843 845 847 849 850 851 851 851 851 850 850 850 851 851 851 852 853 853 853 854 854 854 855 855 854 854 854 854 853 853 852 851 850 849 848 846 845 844 843 842 841 840 839
791 792 794 795 795 796 796 797 798 799 801 804 806 808 809 810 813 815 816 817 819 821 823 824 826 828 831 833 834 835 836 836 837 837 838 838 839 840 841 843 844 845 846 848 850 851 852 853 853 853 853 853 853 853 853 854 854 855 855 855 855 856 856 857 857 857 856 856 855 855 854 854 853 852 851 850 848 847 845 844 843 842 841 839 838
792 794 796 796 797 798 799 800 800 801 803 805 807 809 811 812 814 816 817 818 820 821 823 825 827 829 831 832 834 836 838 838 839 840 840 841 842 843 844 845 846 847 848 850 851 853 854 854 855 855 855 856 856 856 857 857 857 857 857 858 858 858 858 859 859 858 858 857 856 856 855 854 854 853 852 850 849 848 846 845 843 842 841 839 838
795 796 798 799 800 800 801 802 803 804 806 808 809 811 813 814 815 817 818 819 821 822 824 826 828 829 830 832 835 837 838 840 841 842 842 843 844 845 846 847 848 849 850 852 854 855 856 856 856 857 858 858 858 859 859 860 860 860 860 860 860 860 860 860 860 860 859 858 858 857 856 855 855 854 852 851 850 849 847 845 844 842 841 839 837
797 798 799 801 801 802 803 804 806 807 809 810 811 813 814 815 816 817 818 820 822 823 825 826 828 829 830 833 835 837 839 841 843 844 845 846 847 848 849 850 851 852 853 855 856 857 858 858 858 859 859 860 860 861 861 862 862 862 862 862 862 862 862 862 862 861 861 860 859 858 857 856 855 854 853 852 851 850 848 846 845 843 841 840 838
799 800 801 802 803 804 805 806 807 808 810 811 812 814 815 816 817 818 819 820 822 823 825 826 828 829 830 833 836 838 840 843 844 846 847 848 849 851 852 853 854 855 856 858 858 859 860 860 860 861 861 862 862 863 863 864 864 864 864 863 863 864 864 863 863 863 862 862 861 860 858 857 856 855 854 853 851 851 849 848 846 844 842 841 838
800 801 802 803 804 805 807 808 809 810 812 813 813 815 816 817 819 819 820 821 822 824 825 827 829 830 831 833 836 838 841 843 845 846 848 849 850 851 852 854 855 856 857 858 859 860 861 861 862 862 863 863 863 864 864 864 865 865 865 865 865 865 865 865 864 864 863 863 862 861 859 858 857 856 855 853 852 851 850 848 847 845 843 841 839
802 803 803 805 806 807 809 810 811 813 814 815 816 817 819 820 821 822 823 823 824 825 826 827 829 831 832 834 837 839 841 843 846 847 849 850 851 852 853 854 855 857 858 859 860 861 862 862 863 863 863 864 864 864 865 865 865 866 866 866 867 867 867 866 866 865 864 863 862 861 860 859 858 856 855 854 852 851 850 849 847 846 844 842 840
804 805 805 807 808 809 811 813 814 815 817 818 819 820 821 823 824 824 825 826 827 828 829 830 831 833 834 836 838 840 843 845 847 849 850 852 853 854 855 856 857 858 859 860 861 862 862 862 862 863 863 864 865 865 866 866 867 867 867 868 868 868 868 868 867 866 865 864 863 862 861 859 858 857 856 855 853 852 850 849 848 847 845 843 842
805 806 808 809 810 812 813 815 816 817 819 820 822 823 824 825 827 828 829 829 830 831 832 833 834 836 837 838 840 843 845 847 849 851 852 853 854 855 856 857 858 860 861 861 861 861 861 862 863 863 864 865 866 867 867 868 868 869 869 869 869 869 869 869 868 867 866 864 863 862 861 860 859 858 857 856 854 853 852 850 849 848 847 845 844
807 808 810 811 812 814 815 816 818 819 820 822 824 825 826 827 829 830 832 833 833 834 835 837 838 839 841 842 843 845 847 849 851 852 854 855 856 857 858 859 860 861 861 861 862 861 861 862 864 864 865 866 867 869 869 869 870 870 870 870 870 871 871 870 869 868 867 865 864 863 862 861 860 859 858 857 855 854 853 852 851 849 848 847 845
809 810 812 813 814 815 816 817 819 820 822 824 825 826 828 829 830 832 833 835 836 838 838 840 841 842 843 845 846 847 849 850 852 853 855 856 857 858 859 860 861 862 862 862 862 862 863 864 865 866 867 868 869 870 871 872 872 871 871 871 871 871 871 870 869 868 867 866 865 864 863 862 861 860 859 858 857 856 854 853 852 851 849 848 847
811 812 813 814 815 816 817 819 820 821 823 825 826 827 829 831 832 833 834 836 838 840 841 842 843 844 845 847 848 850 851 852 853 854 856 857 858 859 860 861 862 862 862 863 863 864 865 866 867 868 869 870 871 872 872 872 872 872 872 872 872 871 871 870 870 869 868 866 866 865 864 863 862 861 860 859 858 857 855 854 853 852 851 850 848
812 813 815 816 816 817 818 820 821 822 824 825 827 828 830 831 833 834 835 837 838 840 842 844 845 846 847 848 849 851 852 853 854 855 857 858 858 859 859 860 861 862 863 864 865 866 867 868 869 869 870 871 872 872 872 872 873 873 873 873 872 872 871 871 870 869 868 867 866 866 865 864 863 862 861 859 858 857 856 855 854 853 852 851 850
812 814 815 816 818 818 820 821 822 823 824 826 827 829 830 831 833 834 836 838 839 841 843 845 846 847 849 850 851 852 853 854 855 856 857 858 859 859 859 859 861 862 863 865 866 867 868 869 869 870 871 871 872 872 872 872 873 873 873 872 872 872 871 871 870 870 869 867 867 866 865 864 864 863 861 860 859 858 857 856 855 854 853 853 851
813 814 816 817 818 819 821 822 823 824 825 827 828 829 830 831 833 834 836 838 840 841 843 845 846 848 849 850 852 853 854 855 856 857 858 859 859 858 859 860 861 862 863 865 866 867 867 868 869 870 871 871 871 872 872 872 872 872 872 872 872 872 871 871 870 870 869 868 867 867 866 865 864 863 862 861 860 859 858 857 856 855 854 852 851
813 815 816 817 819 820 821 822 823 825 826 827 828 829 830 831 833 834 836 838 840 841 843 844 846 847 848 850 851 853 854 855 856 857 857 858 858 858 859 860 861 862 863 865 866 867 868 869 870 870 871 871 871 872 872 872 872 873 872 872 872 871 871 871 870 870 869 868 868 867 867 866 865 864 863 862 861 860 859 858 857 855 854 852 851
813 815 816 817 819 820 821 822 824 825 825 826 827 828 830 831 832 833 835 837 839 840 842 843 844 845 847 849 850 851 853 854 854 855 856 856 857 858 858 859 861 862 863 864 865 866 867 869 870 870 871 871 872 872 872 872 872 872 872 872 872 872 871 871 871 870 870 869 868 868 867 866 865 864 863 863 863 861 860 859 857 856 854 853 851
812 814 816 817 819 820 821 822 823 823 824 826 826 827 829 830 831 833 834 836 837 839 840 841 842 844 846 848 848 850 851 851 852 853 854 855 856 857 858 859 861 862 863 864 865 866 867 868 869 870 871 871 872 872 872 872 872 872 872 872 872 872 872 871 871 871 870 869 869 868 867 867 866 864 864 864 864 862 861 859 858 856 855 853 852
811 813 815 817 818 819 820 821 822 822 823 824 825 826 828 829 830 832 833 834 836 837 838 840 841 843 845 846 848 849 849 850 851 853 854 855 856 857 858 859 861 862 863 864 865 866 867 868 869 870 871 871 872 872 872 872 872 872 872 872 872 872 872 871 871 871 870 869 869 868 867 867 866 865 865 865 864 863 861 860 858 857 855 853 852
810 812 814 816 817 818 818 819 820 822 823 824 824 825 826 828 829 831 832 833 835 836 837 839 841 843 845 846 848 849 849 849 851 852 853 854 856 857 858 859 860 862 863 864 865 866 867 868 869 870 871 872 872 872 872 872 872 872 872 872 872 872 872 871 871 871 870 869 869 868 867 867 867 866 866 866 864 863 862 861 859 857 856 854 852
810 811 812 814 815 816 817 818 819 821 822 823 824 825 826 827 828 829 831 832 834 835 836 838 840 842 844 846 847 848 848 849 850 851 853 854 855 856 857 859 860 862 863 864 865 867 868 869 870 871 871 872 872 872 872 872 872 872 872 872 872 872 872 872 871 871 870 869 868 868 867 867 867 866 866 865 864 863 862 861 859 858 856 854 852
809 810 811 812 814 815 816 817 818 819 821 822 823 825 826 827 827 828 829 831 832 833 834 836 838 841 843 844 846 847 847 848 849 851 852 853 854 855 857 859 860 862 862 864 866 867 868 869 870 871 871 871 872 872 872 872 872 872 872 872 872 872 872 872 871 871 871 870 869 868 868 868 867 866 866 865 865 863 862 861 859 858 856 854 852
808 809 810 811 812 813 814 816 817 818 819 821 822 823 825 826 826 827 828 829 830 832 833 835 837 839 841 842 844 845 846 848 849 850 851 852 853 855 856 858 860 861 862 864 866 867 868 869 870 870 871 871 871 871 871 871 871 871 871 871 871 872 872 872 872 871 871 871 870 869 869 868 867 867 866 866 865 864 862 861 860 858 856 855 853
807 808 809 810 811 812 813 815 816 817 818 819 820 820 822 823 824 826 827 829 830 832 833 834 836 838 839 841 843 844 846 847 848 849 851 852 853 855 857 858 860 861 863 864 865 866 867 868 869 869 870 870 870 871 871 871 871 871 871 871 871 872 871 871 872 871 871 871 870 870 870 869 868 867 866 865 865 864 862 861 860 858 857 855 853
805 806 807 808 810 811 812 813 814 815 816 817 818 819 819 821 823 825 827 829 830 831 832 833 835 837 839 841 843 844 845 846 847 849 851 853 854 856 857 858 860 861 862 863 865 866 867 868 868 869 869 870 870 870 870 871 871 871 871 871 871 871 871 871 871 871 870 870 870 870 869 869 868 867 866 866 865 863 862 861 860 858 857 855 853
804 805 806 806 808 809 810 811 813 814 814 815 816 817 818 820 822 823 826 828 829 830 831 833 835 837 839 840 842 843 844 846 847 849 851 853 854 856 857 858 859 860 861 863 864 865 866 867 867 868 869 869 869 870 870 870 870 870 870 870 870 870 870 870 870 870 870 870 870 870 869 868 868 867 866 865 864 863 862 861 859 858 856 854 852
803 803 804 805 806 807 808 810 811 812 812 814 815 816 818 819 820 822 824 826 828 829 830 832 834 836 838 839 841 842 844 846 847 849 850 852 854 855 856 858 859 860 861 862 863 864 865 866 867 867 868 868 869 869 869 869 870 870 870 869 869 870 870 870 869 869 869 869 869 869 869 868 867 867 865 865 864 863 862 861 859 858 856 854 852
801 801 802 803 804 805 806 808 809 810 811 812 813 815 816 818 819 820 822 825 826 828 829 831 833 835 836 838 840 842 843 845 846 848 849 851 853 854 855 857 858 859 860 861 862 863 864 865 866 867 868 868 868 869 869 869 869 869 868 869 869 869 869 869 869 869 869 868 868 869 868 868 867 866 865 864 864 863 862 861 859 857 855 853 851